Flag for U.S.A. Weather past 2 weeks in Olathe, Kansas, U.S.A.

Now
77 °F

Passing clouds.


Feels Like: 79 °F
Forecast: 60 / 82 °F
Wind: 5 mph from Southeast

Location: Johnson County Executive Airport

Current Time: Jul 31, 2014 at 11:58:03 AM

Latest Report: Jul 31, 2014 at 10:53 AM


Visibility: 10 mi

Pressure: 30.09 "Hg

Humidity: 48%

Dew point: 56 °F

Location of OlatheLocation

Historic Weather in Olathe — Graph

°F

Olathe temperature yesterday

Maximum temperature yesterday: 76 °F (at 3:53 PM)
Minimum temperature yesterday: 64 °F (at 11:53 PM)
Average temperature yesterday: 71 °F

Past Weeks' High & Low Weather Summary

 TemperatureHumidityPressure
High95 °F (Jul 25, 3:53 PM)100% (Jul 18, 6:53 AM)30.20 "Hg (Jul 18, 6:53 AM)
Low58 °F (Jul 17, 5:53 AM)29% (Jul 27, 4:53 PM)29.74 "Hg (Jul 25, 7:53 PM)
Average75 °F68%30.00 "Hg
* Reported Jul 16 9:53 AM — Jul 31 9:53 AM, Olathe, Weather by CustomWeather, © 2014

Note: Actual official high and low records may vary slightly from our data, if they occured in-between our weather recording intervals... More about our weather records

Advertising

Olathe weather history for previous 24 hours

 ConditionsComfort  
Time TempWeatherWind HumidityBarometerVisibility
9:53 AM
Jul 31
73 °FSunny.No wind64%30.09 "Hg10 mi
8:53 AM70 °FSunny.No wind71%30.09 "Hg10 mi
7:53 AM65 °FSunny.3 mph81%30.08 "Hg10 mi
6:53 AM63 °FClear.5 mph84%30.07 "Hg10 mi
5:53 AM61 °FClear.3 mph90%30.07 "Hg10 mi
4:53 AM63 °FClear.3 mph87%30.07 "Hg10 mi
3:53 AM63 °FClear.3 mph87%30.06 "Hg10 mi
2:53 AM63 °FClear.No wind87%30.07 "Hg10 mi
1:53 AM64 °FClear.No wind87%30.07 "Hg10 mi
12:53 AM62 °FClear.No wind93%30.08 "Hg10 mi
11:53 PM
Jul 30
64 °FClear.No wind90%30.08 "Hg10 mi
10:53 PM67 °FClear.No wind81%30.07 "Hg10 mi
9:53 PM66 °FClear.3 mph81%30.07 "Hg10 mi
8:53 PM70 °FSunny.3 mph73%30.05 "Hg10 mi
7:53 PM72 °FPassing clouds.3 mph68%30.05 "Hg10 mi
6:53 PM74 °FScattered clouds.5 mph64%30.05 "Hg10 mi
5:53 PM75 °FScattered clouds.6 mph58%30.05 "Hg10 mi
4:53 PM75 °FBroken clouds.7 mph58%30.05 "Hg10 mi
3:53 PM76 °FPassing clouds.3 mph54%30.06 "Hg10 mi
2:53 PM75 °FScattered clouds.No wind54%30.07 "Hg10 mi
1:53 PM75 °FPartly sunny.3 mph55%30.08 "Hg10 mi
12:53 PM74 °FSunny.5 mph60%30.09 "Hg10 mi
11:53 AM72 °FPassing clouds.5 mph64%30.10 "Hg10 mi
Weather by CustomWeather, © 2014

See weather overviewHow to use our weather pages